[[{"header":{"parameterUnit":"m.s-1","parameterCategory":1,"la1":30.2992,"la2":30.254,"lo1":-89.0895,"lo2":-89.0443,"dy":0.0025,"dx":0.0025,"nx":19,"ny":19,"refTime":"2026-03-27T03:00:00:Z","depth":0,"parameterNumber":2,"parameterNumberName":"U-component_of_WINDS"},"data":[0,0,0,-3.6751,-3.6753,-3.685,-3.685,-3.6991,-3.6993,0,0,0,0,0,0,0,0,0,0,0,-3.6734,-3.6735,-3.6751,-3.6754,-3.685,-3.685,-3.6991,-3.6993,0,0,0,0,0,0,0,0,0,0,0,-3.6733,-3.6735,-3.6737,-3.6754,-3.6849,-3.685,-3.6991,-3.6912,0,0,0,0,0,0,0,0,0,0,-3.6815,-3.681,-3.6735,-3.6737,-3.6755,-3.6849,-3.685,-3.6907,-3.6917,-3.6956,0,-3.6994,0,-3.6996,-3.7003,-3.7004,0,0,0,-3.6745,-3.6803,-3.6819,-3.6737,-3.6756,-3.6849,-3.6804,-3.6912,-3.6923,-3.6968,-3.6996,-3.7,-3.6998,-3.7004,-3.7005,-3.7261,-3.7262,0,0,-3.674,-3.6757,-3.6812,-3.6826,-3.6812,-3.6801,-3.6807,-3.6918,-3.695,-3.6996,-3.7003,-3.7,-3.7006,-3.7007,-3.7259,-3.7261,0,0,0,-3.673,-3.6754,-3.6766,-3.6821,-3.6836,-3.6804,-3.6811,-3.6945,-3.6947,-3.7005,-3.7002,-3.7006,-3.7008,-3.7258,-3.726,-3.7356,0,0,0,-3.6727,-3.6748,-3.6765,-3.6776,-3.6835,-3.6892,-3.6835,-3.694,-3.6951,-3.7001,-3.7007,-3.701,-3.7256,-3.7259,-3.735,-3.7399,0,0,0,-3.6724,-3.6748,-3.6766,-3.6777,-3.6819,-3.689,-3.6898,-3.6942,-3.695,-3.7004,-3.701,-3.7255,-3.7258,-3.7344,-3.739,-3.7472,0,0,0,-3.6726,-3.685,-3.6768,-3.6905,-3.6818,-3.6948,-3.6897,-3.6993,-3.7051,-3.7007,-3.7256,-3.726,-3.7342,-3.7384,-3.7466,-3.7546,-3.758,0,0,-3.6892,-3.6871,-3.695,-3.6879,-3.7028,-3.6932,-3.7096,-3.7131,-3.712,-3.7215,-3.722,-3.7352,-3.7389,-3.7471,-3.7766,-3.7793,0,0,0,-3.7009,-3.7066,-3.7102,-3.7158,-3.7188,-3.7218,-3.7227,-3.724,-3.732,-3.7172,-3.7403,-3.7425,-3.7472,-3.7509,-3.7533,-3.7572,-3.7277,-3.7277,-3.7277,-3.727,-3.7249,-3.7379,-3.737,-3.7425,-3.7433,-3.7475,-3.7495,-3.7457,-3.7512,-3.754,-3.7722,-3.7766,-3.7783,-3.7825,-3.758,-3.758,-3.758,-3.7581,-3.7513,-3.7591,-3.7538,-3.7646,-3.7623,-3.7713,-3.7726,-3.7696,-3.7777,-3.7699,-3.7739,-3.7656,-3.7814,-3.785,-3.7588,-3.7587,-3.7586,-3.7585,-3.7584,-3.7682,-3.7716,-3.773,-3.7809,-3.7872,-3.7857,-3.7938,-3.7913,-3.7891,-3.7931,-3.7959,-3.7957,-3.7953,-3.7946,-3.7947,-3.7947,-3.7948,-3.7948,-3.7949,-3.7853,-3.7866,-3.7936,-3.7979,-3.8012,-3.8052,-3.8061,-3.8092,-3.8121,-3.8097,-3.8097,-3.8055,-3.7833,-3.7778,-3.7958,-3.7957,-3.7955,-3.7955,-3.7954,-3.8108,-3.8047,-3.8156,-3.8189,-3.8237,-3.8301,-3.8269,-3.8336,-3.8358,-3.8399,-3.8347,-3.8187,-3.8163,-3.8144,-3.8099,-3.8351,-3.8351,-3.8351,-3.8351,-3.8252,-3.8238,-3.8344,-3.8398,-3.8448,-3.843,-3.8554,-3.8563,-3.8562,-3.8575,-3.8534,-3.8471,-3.8453,-3.844,-3.8415,-3.8372,-3.8689,-3.8689,-3.8689,-3.8408,-3.8397,-3.8508,-3.8506,-3.8542,-3.8573,-3.8689,-3.8754,-3.874,-3.8702,-3.8584,-3.857,-3.8468,-3.8436,-3.8397,-3.8359,-3.828,0,0]},{"header":{"parameterUnit":"m.s-1","parameterCategory":1,"la1":30.2992,"la2":30.254,"lo1":-89.0895,"lo2":-89.0443,"dy":0.0025,"dx":0.0025,"nx":19,"ny":19,"refTime":"2026-03-27T03:00:00:Z","depth":0,"parameterNumber":3,"parameterNumberName":"V-component_of_WINDS"},"data":[0,0,0,-4.3208,-4.3209,-4.3238,-4.3238,-4.3284,-4.3284,0,0,0,0,0,0,0,0,0,0,0,-4.3206,-4.3207,-4.3208,-4.3209,-4.3238,-4.3238,-4.3284,-4.3284,0,0,0,0,0,0,0,0,0,0,0,-4.3206,-4.3206,-4.3207,-4.3209,-4.3238,-4.3238,-4.3283,-4.3258,0,0,0,0,0,0,0,0,0,0,-4.3229,-4.3233,-4.3206,-4.3207,-4.3209,-4.3238,-4.3238,-4.3257,-4.326,-4.3275,0,-4.329,0,-4.3288,-4.3288,-4.3288,0,0,0,-4.3204,-4.3231,-4.3233,-4.3207,-4.321,-4.3238,-4.3224,-4.3258,-4.3262,-4.3279,-4.3291,-4.3292,-4.3289,-4.3288,-4.3288,-4.3391,-4.3391,0,0,-4.3203,-4.3214,-4.3231,-4.3235,-4.3233,-4.3223,-4.3225,-4.326,-4.3274,-4.3291,-4.3293,-4.329,-4.3289,-4.3289,-4.339,-4.3391,0,0,0,-4.3201,-4.3214,-4.3215,-4.3234,-4.3238,-4.3224,-4.3226,-4.3273,-4.3272,-4.3294,-4.329,-4.3289,-4.329,-4.3389,-4.339,-4.3436,0,0,0,-4.32,-4.3213,-4.3214,-4.3222,-4.3238,-4.3256,-4.3237,-4.3269,-4.3273,-4.329,-4.3289,-4.329,-4.3388,-4.339,-4.3433,-4.3455,0,0,0,-4.3202,-4.3213,-4.3219,-4.3222,-4.3235,-4.3255,-4.3256,-4.327,-4.3271,-4.3288,-4.329,-4.3388,-4.3389,-4.343,-4.345,-4.3484,0,0,0,-4.3207,-4.326,-4.322,-4.3278,-4.3235,-4.3284,-4.3256,-4.3292,-4.3312,-4.3289,-4.3388,-4.339,-4.3429,-4.3448,-4.3481,-4.3513,-4.3528,0,0,-4.328,-4.3269,-4.3302,-4.3267,-4.3326,-4.3278,-4.3343,-4.335,-4.3341,-4.3374,-4.3377,-4.3434,-4.345,-4.3483,-4.3609,-4.3621,0,0,0,-4.3329,-4.3353,-4.3366,-4.3386,-4.3393,-4.3399,-4.3395,-4.3398,-4.3425,-4.3361,-4.3455,-4.3465,-4.3483,-4.3498,-4.3508,-4.3522,-4.3398,-4.3398,-4.3397,-4.3449,-4.3435,-4.3487,-4.3476,-4.3495,-4.349,-4.3504,-4.3506,-4.3486,-4.3508,-4.3517,-4.3596,-4.3613,-4.3621,-4.3636,-4.3534,-4.3534,-4.3535,-4.3535,-4.3554,-4.3584,-4.3556,-4.3596,-4.358,-4.3614,-4.361,-4.3595,-4.3623,-4.3588,-4.3604,-4.3565,-4.3634,-4.3647,-4.3538,-4.3537,-4.3537,-4.3537,-4.3536,-4.3629,-4.3641,-4.3643,-4.3669,-4.369,-4.3677,-4.3705,-4.3689,-4.3675,-4.3691,-4.3698,-4.3697,-4.3692,-4.3695,-4.3696,-4.3696,-4.3696,-4.3696,-4.3697,-4.3706,-4.3707,-4.3733,-4.3744,-4.3753,-4.3764,-4.3759,-4.3768,-4.3774,-4.376,-4.376,-4.3736,-4.3645,-4.3621,-4.3701,-4.37,-4.3699,-4.3699,-4.3699,-4.3815,-4.3787,-4.3827,-4.3837,-4.3847,-4.3869,-4.3849,-4.3868,-4.3873,-4.3887,-4.386,-4.3796,-4.3783,-4.3775,-4.3755,-4.3865,-4.3865,-4.3865,-4.3865,-4.3877,-4.3869,-4.3905,-4.3922,-4.3936,-4.3921,-4.3965,-4.3961,-4.3953,-4.3955,-4.3937,-4.391,-4.3903,-4.3894,-4.3883,-4.3864,-4.3999,-4.4,-4.4,-4.3942,-4.3935,-4.3975,-4.3967,-4.3974,-4.398,-4.402,-4.4038,-4.4024,-4.4005,-4.3956,-4.395,-4.3906,-4.3893,-4.3871,-4.3855,-4.382,0,0]}]]